• Join FlightAware (Why Join?)
  • Login
  • US Flag 
03:35PM EDT


 

Airport Tracker/Info


-or-


 

Live Flight TrackerFlight Track Log ✈ DAL3982 ✈ 01-May-2013 ✈ KATL - CYUL

Flight Track Log - Related Links

Times and Time Zones

All times are in EDT time to prevent confusion due to time zone crossing. See the DAL3982 flight status page for this flight to view local times or setup timezone preferences in your user account.

Time Position Orientation Groundspeed Altitude Reporting Facility
EDT Latitude Longitude Course Direction KTS MPH feet Rate Location/Type
09:44PM 33.6500 -84.3833 12° North 163 188 2,700  Level Atlanta TRACON
09:45PM 33.6667 -84.3167 73° East 222 255 4,200 1,860 Climbing Atlanta TRACON
09:46PM 33.6833 -84.2333 76° East 266 306 6,300 2,220 Climbing Atlanta TRACON
09:47PM 33.9823 -84.3419 12° North  Level FlightAware Approximate
09:48PM 34.0962 -84.3148 North  Level FlightAware Approximate
09:49PM 34.2128 -84.2967 12° North  Level FlightAware Approximate
09:49PM 33.8547 -84.2264 North 302 348 11,600  Level Atlanta Center
09:50PM 34.3278 -84.2670 12° North  Level FlightAware Approximate
09:50PM 33.9528 -84.2417 353° North 329 379 12,900  Level Atlanta Center
09:51PM 34.0592 -84.2544 354° North 367 422 14,500 1,440 Climbing Atlanta Center
09:52PM 34.1781 -84.2697 354° North 394 453 15,800 1,440 Climbing Atlanta Center
09:53PM 34.3033 -84.2778 357° North 435 501 17,400 1,740 Climbing Atlanta Center
09:54PM 34.4181 -84.2528 10° North 435 501 19,300 2,040 Climbing Atlanta Center
09:55PM 34.5350 -84.2278 10° North 430 495 21,500 1,980 Climbing Atlanta Center
09:56PM 34.6478 -84.1953 13° North 425 489 23,300 1,380 Climbing Atlanta Center
09:57PM 34.7647 -84.1728 North 417 480 24,300 960 Climbing Atlanta Center
09:58PM 34.8858 -84.1425 12° North 430 495 25,300 960 Climbing Atlanta Center
09:59PM 35.0108 -84.1122 11° North 441 507 26,300 840 Climbing Atlanta Center
10:00PM 35.1425 -84.0794 12° North 453 521 27,000 300 Climbing Atlanta Center
10:01PM 35.2739 -84.0489 11° North 471 542 27,000  Level Atlanta Center
10:02PM 35.4075 -84.0158 11° North 476 548 27,000  Level Atlanta Center
10:03PM 35.5389 -83.9853 11° North 476 548 27,000  Level Atlanta Center
10:04PM 35.6681 -83.9519 12° North 476 548 27,000  Level Atlanta Center
10:05PM 35.7994 -83.9208 11° North 476 548 27,000  Level Atlanta Center
10:06PM 35.9308 -83.8797 14° North 476 548 27,000  Level Atlanta Center
10:07PM 36.0497 -83.8025 28° Northeast 476 548 27,000  Level Atlanta Center
10:09PM 36.3075 -83.6389 27° Northeast 479 551 27,000  Level Indianapolis Center
10:10PM 36.4267 -83.5647 27° Northeast 479 551 27,000  Level Indianapolis Center
10:11PM 36.5369 -83.4947 27° Northeast 481 554 27,000  Level Indianapolis Center
10:12PM 36.6564 -83.4194 27° Northeast 479 551 27,000  Level Indianapolis Center
10:13PM 36.7739 -83.3436 27° Northeast 474 545 27,000  Level Indianapolis Center
10:14PM 36.8922 -83.2678 27° Northeast 473 544 27,000  Level Indianapolis Center
10:15PM 37.0317 -83.1775 27° Northeast 475 547 27,000  Level Indianapolis Center
10:16PM 37.1511 -83.0992 28° Northeast 478 550 27,000  Level Indianapolis Center
10:17PM 37.2694 -83.0217 28° Northeast 475 547 27,000  Level Indianapolis Center
10:18PM 37.3858 -82.9383 30° Northeast 477 549 27,000  Level Indianapolis Center
10:19PM 37.4919 -82.8369 37° Northeast 478 550 27,000  Level Indianapolis Center
10:20PM 37.5994 -82.7381 36° Northeast 477 549 27,000  Level Indianapolis Center
10:21PM 37.7064 -82.6394 36° Northeast 474 545 27,000  Level Indianapolis Center
10:22PM 37.8131 -82.5394 37° Northeast 475 547 27,000  Level Indianapolis Center
10:23PM 37.9192 -82.4400 36° Northeast 474 545 27,000  Level Indianapolis Center
10:24PM 38.0258 -82.3403 36° Northeast 475 547 27,000  Level Indianapolis Center
10:25PM 38.1322 -82.2383 37° Northeast 474 545 27,000  Level Indianapolis Center
10:26PM 38.2389 -82.1383 36° Northeast 476 548 27,000  Level Indianapolis Center
10:27PM 38.3444 -82.0383 37° Northeast 471 542 27,000  Level Indianapolis Center
10:28PM 38.4500 -81.9356 37° Northeast 476 548 27,000  Level Indianapolis Center
10:29PM 38.5558 -81.8350 37° Northeast 473 544 27,000  Level Indianapolis Center
10:30PM 38.6633 -81.7325 37° Northeast 476 548 27,000  Level Indianapolis Center
10:31PM 38.7731 -81.6253 37° Northeast 478 550 27,000  Level Indianapolis Center
10:32PM 38.8814 -81.5208 37° Northeast 474 545 27,000  Level Indianapolis Center
10:33PM 38.9869 -81.4175 37° Northeast 475 547 27,000  Level Indianapolis Center
10:34PM 39.0919 -81.3150 37° Northeast 472 543 27,000  Level Indianapolis Center
10:35PM 39.1964 -81.2122 37° Northeast 471 542 27,000  Level Indianapolis Center
10:36PM 39.3000 -81.1097 37° Northeast 470 541 27,000  Level Indianapolis Center
10:37PM 39.4036 -81.0075 37° Northeast 467 537 27,000  Level Indianapolis Center
10:38PM 39.5056 -80.9053 38° Northeast 465 535 27,000  Level Indianapolis Center
10:39PM 39.6300 -80.7817 37° Northeast 467 537 27,000  Level Indianapolis Center
10:40PM 39.6919 -80.7233 36° Northeast 470 541 27,000  Level Cleveland Center
10:41PM 39.7942 -80.6208 38° Northeast 465 535 27,000  Level Cleveland Center
10:42PM 39.8961 -80.5181 38° Northeast 465 535 27,000  Level Cleveland Center
10:43PM 39.9983 -80.4150 38° Northeast 465 535 27,000  Level Cleveland Center
10:44PM 40.1003 -80.3117 38° Northeast 465 535 27,000  Level Cleveland Center
10:45PM 40.2019 -80.2081 38° Northeast 465 535 27,000  Level Cleveland Center
10:46PM 40.3017 -80.1039 39° Northeast 465 535 27,000  Level Cleveland Center
10:47PM 40.3931 -80.0106 38° Northeast 465 535 27,000  Level Cleveland Center
10:48PM 40.4989 -79.9033 38° Northeast 472 543 27,000  Level Cleveland Center
10:49PM 40.5981 -79.7983 39° Northeast 467 537 27,000  Level Cleveland Center
10:50PM 40.6975 -79.6958 38° Northeast 467 537 27,000  Level Cleveland Center
10:51PM 40.8008 -79.5875 38° Northeast 462 532 27,000  Level Cleveland Center
10:52PM 40.9000 -79.4842 38° Northeast 462 532 27,000  Level Cleveland Center
10:53PM 41.0011 -79.3808 38° Northeast 462 532 27,000  Level Cleveland Center
10:54PM 41.1000 -79.2742 39° Northeast 462 532 27,000  Level Cleveland Center
10:55PM 41.2008 -79.1675 39° Northeast 462 532 27,000  Level Cleveland Center
10:56PM 41.3017 -79.0603 39° Northeast 462 532 27,000  Level Cleveland Center
10:57PM 41.4022 -78.9525 39° Northeast 462 532 27,000  Level Cleveland Center
10:58PM 41.5111 -78.8361 39° Northeast 462 532 27,000  Level Cleveland Center
10:59PM 41.6114 -78.7281 39° Northeast 462 532 27,000  Level Cleveland Center
11:00PM 41.7097 -78.6194 39° Northeast 462 532 27,000  Level Cleveland Center
11:01PM 41.8081 -78.5133 39° Northeast 462 532 27,000  Level Cleveland Center
11:02PM 41.9081 -78.4042 39° Northeast 462 532 27,000  Level Cleveland Center
11:03PM 42.0039 -78.2947 40° Northeast 457 526 27,000  Level Cleveland Center
11:04PM 42.1061 -78.1875 38° Northeast 457 526 27,000  Level Cleveland Center
11:05PM 42.2039 -78.0800 39° Northeast 457 526 27,000  Level Cleveland Center
11:06PM 42.3056 -77.9692 39° Northeast 457 526 27,000  Level Cleveland Center
11:07PM 42.4011 -77.8614 40° Northeast 457 526 27,000  Level Cleveland Center
11:08PM 42.4983 -77.7528 39° Northeast 457 526 27,000  Level Cleveland Center
11:09PM 42.5958 -77.6414 40° Northeast 457 526 27,000  Level Cleveland Center
11:10PM 42.6931 -77.5322 40° Northeast 452 520 27,000  Level Cleveland Center
11:11PM 42.7839 -77.4289 40° Northeast 461 531 27,000  Level Cleveland Center
11:13PM 42.9758 -77.2114 40° Northeast 452 520 27,000  Level Boston Center
11:14PM 43.0744 -77.0967 40° Northeast 452 520 27,000  Level Boston Center
11:15PM 43.1922 -76.9633 40° Northeast 452 520 27,000  Level Boston Center
11:16PM 43.2886 -76.8506 40° Northeast 452 520 27,000  Level Boston Center
11:17PM 43.3867 -76.7347 41° Northeast 452 520 27,000  Level Boston Center
11:18PM 43.4781 -76.6325 39° Northeast 457 526 27,000  Level Boston Center
11:19PM 43.5761 -76.5161 41° Northeast 457 526 27,000  Level Boston Center
11:20PM 43.6806 -76.3939 40° Northeast 452 520 27,000  Level Boston Center
11:21PM 43.7783 -76.2764 41° Northeast 447 514 27,000  Level Boston Center
11:22PM 43.8758 -76.1617 40° Northeast 447 514 27,000  Level Boston Center
11:23PM 43.9733 -76.0494 40° Northeast 447 514 27,000  Level Boston Center
11:24PM 44.0744 -75.9458 36° Northeast 447 514 27,000  Level Boston Center
11:25PM 44.1658 -75.8236 44° Northeast 447 514 27,000  Level Boston Center
11:26PM 44.2589 -75.6986 44° Northeast 447 514 27,000  Level Boston Center
11:27PM 44.3478 -75.5786 44° Northeast 447 514 27,000  Level Boston Center
11:28PM 44.4406 -75.4583 43° Northeast 447 514 27,000  Level Boston Center
11:29PM 44.5314 -75.3347 44° Northeast 447 514 27,000  Level Boston Center
11:30PM 44.6219 -75.2108 44° Northeast 447 514 27,000 -360 Level Boston Center
11:31PM 44.6667 -75.1167 56° Northeast 450 518 26,500 -1,500 Descending Montreal Center
11:32PM 44.7500 -75.0333 35° Northeast 430 495 24,600 -1,920 Descending Montreal Center
11:33PM 44.8333 -74.9000 49° Northeast 410 472 22,700 -1,920 Descending Montreal Center
11:34PM 44.9167 -74.7833 45° Northeast 410 472 20,800 -1,980 Descending Montreal Center
11:35PM 45.0000 -74.6833 40° Northeast 410 472 18,800 -1,740 Descending Montreal Center
11:36PM 45.0833 -74.5667 45° Northeast 400 460 17,400 -1,740 Descending Montreal Center
11:37PM 45.1667 -74.4667 40° Northeast 390 449 15,400 -1,920 Descending Montreal Center
11:38PM 45.2333 -74.3500 51° Northeast 360 414 13,600 -1,920 Descending Montreal Center
11:39PM 45.3000 -74.2500 47° Northeast 340 391 11,600 -1,620 Descending Montreal Center
11:40PM 45.3500 -74.1500 55° Northeast 300 345 10,400 -1,440 Descending Montreal Center
11:41PM 45.4000 -74.0833 43° Northeast 280 322 8,800 -1,620 Descending Montreal Center
11:42PM 45.4333 -74.0167 55° Northeast 270 311 7,200 -1,560 Descending Montreal Center
11:43PM 45.4833 -73.9167 54° Northeast 270 311 5,700 -1,560 Descending Montreal Center
11:44PM 45.5333 -73.8333 49° Northeast 260 299 4,100 -900 Descending Montreal Center
11:45PM 45.5833 -73.7667 43° Northeast 260 299 4,000 -60 Descending Montreal Center
11:46PM 45.6167 -73.6667 64° Northeast 250 288 4,000 -360 Level Montreal Center
11:47PM 45.6333 -73.6000 70° East 190 219 3,300 -720 Descending Montreal Center